Location: Shandelee
(41.8790°N, 74.8713°W)
Time: 04:16:53
(UTC+00:00)

CORIOLIS - Pass Details

Date: 29 October 2020
Orbit: 819 x 838 km, 98.7° (Epoch: 23 November)

Event Time Altitude Azimuth Distance (km) Brightness Sun altitude
Rises 22:31:09 0° 164° (SSE) 3,334 7.3 -7.0°
Reaches altitude 10° 22:33:28 10° 165° (SSE) 2,406 6.6 -7.4°
Maximum altitude 22:38:49 89° 260° (W) 826 4.2 -8.4°
Drops below altitude 10° 22:44:12 10° 346° (NNW) 2,429 6.6 -9.4°
Sets 22:46:34 0° 347° (NNW) 3,368 7.4 -9.8°
